{"data":{"norad_id":62652,"intl_designator":"2025-009AV","name":"FLOCK 4G-31","alt_names":[],"object_type":"PAYLOAD","status":"ACTIVE","operator":null,"country":"US","launch_date":"2025-01-14","launch_site_code":"AFWTR","launch_vehicle":null,"mission":null,"orbit_class":"UNKNOWN","rcs_meters":null,"size_class":null,"mass_kg":null,"dimensions":null,"purposes":["earth_obs"],"wikipedia_slug":null,"has_3d_model":false,"image_url":null,"decayed_at":null,"tle_current":{"epoch":"2026-05-25T04:16:52.891680Z","epoch_age_seconds":52847,"freshness":"FRESH","line1":"1 62652U 25009AV  26145.17838995  .00010351  00000+0  37504-3 0  9996","line2":"2 62652  97.3966 226.8917 0002721  75.9699 284.1843 15.28558387 75391","mean_motion":15.28558387,"eccentricity":0.0002721,"inclination_deg":97.3966,"raan_deg":226.8917,"arg_perigee_deg":75.9699,"mean_anomaly_deg":284.1843,"bstar":0.00037504,"rev_number":7539,"period_min":94.20641123341,"perigee_km":478.25488414492,"apogee_km":481.98714815731,"semimajor_km":6858.2580161511,"source":"CELESTRAK","updated_at":"2026-05-25T13:38:13.340425Z"}}}